Location: *
(37.5724°S, 58.0067°E)
Time: 11:52:10
(UTC+00:00)

Genesis I - Pass Details

Date: 25 January 2021
Orbit: 488 x 532 km, 64.5° (Epoch: 05 March)

Event Time Altitude Azimuth Distance (km) Brightness Sun altitude
Exits shadow 21:22:22 20° 177° (S) 1,251 5.7 -31.8°
Drops below altitude 10° 21:23:52 10° 165° (SSE) 1,778 6.8 -31.7°
Sets 21:26:10 0° 156° (SSE) 2,665 8.0 -31.6°
